Weather History for Rolla, MO

Change the Weather History Date:

Wednesday, April 17, 2013

  Actual Average Record
Temperature  
Mean Temperature 64 °F 56 °F  
Max Temperature 83 °F 67 °F 86 °F (2004)
Min Temperature 45 °F 44 °F 25 °F (1904)
Degree Days  
Heating Degree Days 1 10  
Month to date heating degree days 217 209  
Since 1 July heating degree days 4622 4613  
Cooling Degree Days 0 1  
Month to date cooling degree days 6 11  
Year to date cooling degree days 6 15  
Growing Degree Days 14 (Base 50)    
Moisture  
Dew Point 56 °F    
Average Humidity 77    
Maximum Humidity 100    
Minimum Humidity 54    
Precipitation  
Precipitation 0.00 in 0.14 in 2.91 in (1957)
Month to date precipitation 2.54 2.28  
Year to date precipitation 10.51 9.83  
Sea Level Pressure  
Sea Level Pressure 29.89 in    
Wind  
Wind Speed 16 mph (SE)    
Max Wind Speed 29 mph    
Max Gust Speed 38 mph    
Visibility 5 miles    
Events Fog    
T = Trace of Precipitation, MM = Missing Value Source: NWS Daily Summary

Daily Weather History Graph

Daily Weather History Graph

Search for Another Location

Airport:

Trip Planner

Search our weather history database for the weather conditions in past years. The results will help you decide how hot, cold, wet, or windy it might be!

Date:

Astronomy

Apr. 17, 2013 Rise Set
Actual Time 6:28 AM CDT 7:45 PM CDT
Civil Twilight 6:01 AM CDT 8:12 PM CDT
Nautical Twilight 5:28 AM CDT 8:45 PM CDT
Astronomical Twilight 4:54 AM CDT 9:20 PM CDT
Moon 11:44 AM CDT (4/17) 1:21 AM CDT (4/17)
Length of Visible Light 14h 11m
Length of Day
13h 16m
Waxing Crescent, 42% of the Moon is Illuminated
Apr 17
Waxing Crescent
Apr 18
First Quarter
Apr 25
Full
May 2
Last Quarter
May 9
New

Hourly Weather History & Observations

Time (CDT) Temp. Windchill Dew Point Humidity Pressure Visibility Wind Dir Wind Speed Gust Speed Precip Events Conditions
12:53 AM 45.0 °F 40.6 °F 45.0 °F 100% 30.07 in 0.2 mi ENE 8.1 mph - N/A Fog Fog
1:53 AM 46.0 °F 41.9 °F 45.0 °F 96% 30.07 in 0.2 mi East 8.1 mph - N/A Fog Fog
2:53 AM 46.0 °F 41.9 °F 46.0 °F 100% 30.05 in 0.2 mi East 8.1 mph - N/A Fog Fog
3:53 AM 46.0 °F 41.0 °F 46.0 °F 100% 30.04 in 0.5 mi East 10.4 mph - N/A Fog Fog
4:13 AM 46.4 °F 40.7 °F 46.4 °F 100% 30.03 in 0.8 mi East 12.7 mph - N/A   Mist
4:53 AM 46.9 °F - 46.0 °F 97% 30.02 in 1.0 mi East 12.7 mph - N/A   Mist
5:35 AM 46.4 °F 40.1 °F 46.4 °F 100% 30.00 in 2.0 mi ESE 15.0 mph - N/A   Overcast
5:53 AM 48.0 °F - 46.9 °F 96% 29.99 in 2.0 mi ESE 15.0 mph - N/A   Overcast
6:18 AM 48.2 °F - 46.4 °F 93% 29.97 in 1.8 mi ESE 15.0 mph - N/A   Overcast
6:34 AM 48.2 °F - 48.2 °F 100% 29.98 in 0.5 mi ESE 15.0 mph - N/A Fog Fog
6:53 AM 48.9 °F - 48.9 °F 100% 29.99 in 0.2 mi ESE 16.1 mph - N/A Fog Fog
7:53 AM 50.0 °F - 50.0 °F 100% 30.00 in 0.2 mi East 11.5 mph - N/A Fog Fog
8:53 AM 53.6 °F - 51.8 °F 94% 29.98 in 0.2 mi ESE 10.4 mph - N/A Fog Fog
9:53 AM 55.9 °F - 55.9 °F 100% 29.97 in 0.2 mi ESE 12.7 mph - N/A Fog Fog
10:30 AM 59.0 °F - 59.0 °F 100% 29.96 in 1.0 mi SE 12.7 mph - N/A   Overcast
10:50 AM 62.6 °F - 60.8 °F 94% 29.95 in 2.5 mi SE 11.5 mph - N/A   Overcast
10:53 AM 62.1 °F - 61.0 °F 96% 29.94 in 3.0 mi SE 11.5 mph - N/A   Overcast
11:06 AM 64.4 °F - 62.6 °F 94% 29.93 in 4.0 mi SE 11.5 mph - N/A   Mostly Cloudy
11:16 AM 66.2 °F - 64.4 °F 94% 29.93 in 5.0 mi SSE 11.5 mph - N/A   Mostly Cloudy
11:49 AM 71.6 °F - 64.4 °F 78% 29.92 in 9.0 mi South 18.4 mph 25.3 mph N/A   Scattered Clouds
11:53 AM 72.0 °F - 66.0 °F 81% 29.91 in 9.0 mi SSE 19.6 mph - N/A   Scattered Clouds
12:53 PM 75.9 °F - 66.0 °F 71% 29.88 in 10.0 mi SSE 17.3 mph 21.9 mph N/A   Scattered Clouds
1:53 PM 80.1 °F - 66.9 °F 64% 29.84 in 10.0 mi SSE 16.1 mph - N/A   Partly Cloudy
2:53 PM 81.0 °F - 64.0 °F 56% 29.79 in 10.0 mi SSE 19.6 mph 32.2 mph N/A   Scattered Clouds
3:53 PM 82.0 °F - 64.0 °F 54% 29.75 in 10.0 mi SSE 20.7 mph 29.9 mph N/A   Partly Cloudy
4:53 PM 79.0 °F - 61.0 °F 54% 29.73 in 10.0 mi SSE 15.0 mph 25.3 mph N/A   Overcast
5:53 PM 78.1 °F - 61.0 °F 56% 29.71 in 10.0 mi SSE 19.6 mph 29.9 mph N/A   Clear
6:53 PM 78.1 °F - 61.0 °F 56% 29.69 in 10.0 mi SSE 15.0 mph 23.0 mph N/A   Clear
7:53 PM 77.0 °F - 60.1 °F 56% 29.68 in 10.0 mi South 17.3 mph 29.9 mph N/A   Clear
8:53 PM 75.0 °F - 60.1 °F 60% 29.68 in 10.0 mi South 17.3 mph 24.2 mph N/A   Clear
9:53 PM 73.9 °F - 62.1 °F 66% 29.68 in 10.0 mi South 24.2 mph 36.8 mph N/A   Clear
10:53 PM 73.0 °F - 63.0 °F 71% 29.66 in 10.0 mi South 19.6 mph 31.1 mph N/A   Partly Cloudy
11:53 PM 73.0 °F - 64.0 °F 73% 29.64 in 10.0 mi South 21.9 mph 31.1 mph N/A   Mostly Cloudy